GW1401 Weather Reports


Display with metric or nautical units.
time (UTC)temp
F
wind
direction
speed
MPH
gust
MPH
rain 1hr
in
rain 24hr
in
rain mn
in
humidity
%
barometer
mb
20260508120249 43 119 0.0 0.0 0.00 0.00 0.00 99 1019.4
20260508115746 42 112 0.0 0.0 0.00 0.00 0.00 99 1019.7
20260508115243 41 123 0.0 1.0 0.00 0.00 0.00 99 1019.5
20260508114739 41 116 0.0 0.0 0.00 0.00 0.00 99 1019.5
20260508114236 40 114 0.0 0.0 0.00 0.00 0.00 99 1019.4
20260508113732 39 119 0.0 0.0 0.00 0.00 0.00 99 1019.3
20260508113231 39 120 0.0 0.0 0.00 0.00 0.00 99 1019.3
20260508112727 39 119 0.0 0.0 0.00 0.00 0.00 99 1019.3
20260508112224 39 117 0.0 0.0 0.00 0.00 0.00 99 1019.3
20260508111720 39 116 0.0 0.0 0.00 0.00 0.00 99 1019.1
20260508111219 39 119 0.0 0.0 0.00 0.00 0.00 99 1019.2
20260508110715 38 119 0.0 0.0 0.00 0.00 0.00 99 1019.1
20260508110212 38 119 0.0 0.0 0.00 0.00 0.00 99 1019.0
20260508105712 38 119 0.0 0.0 0.00 0.00 0.00 99 1019.0
20260508105209 38 119 0.0 0.0 0.00 0.00 0.00 99 1019.1
20260508104707 38 119 0.0 0.0 0.00 0.00 0.00 99 1019.0
20260508104203 38 119 0.0 0.0 0.00 0.00 0.00 99 1019.0
20260508103701 38 121 0.0 0.0 0.00 0.00 0.00 99 1019.0
20260508103158 38 121 0.0 0.0 0.00 0.00 0.00 99 1018.9
20260508102655 38 119 0.0 0.0 0.00 0.00 0.00 99 1019.0
20260508102153 38 119 0.0 0.0 0.00 0.00 0.00 99 1018.9
20260508101649 38 119 0.0 0.0 0.00 0.00 0.00 99 1019.1
20260508101147 38 119 0.0 0.0 0.00 0.00 0.00 99 1018.8
20260508100644 38 119 0.0 0.0 0.00 0.00 0.00 99 1019.0
20260508100143 38 119 0.0 0.0 0.00 0.00 0.00 99 1019.0
20260508095639 38 119 0.0 0.0 0.00 0.00 0.00 99 1018.7
20260508095136 38 119 0.0 0.0 0.00 0.00 0.00 99 1018.8
20260508094633 38 119 0.0 0.0 0.00 0.00 0.00 99 1018.9
20260508094129 38 120 0.0 0.0 0.00 0.00 0.00 99 1018.8
20260508093627 38 121 0.0 0.0 0.00 0.00 0.00 99 1019.0
20260508093124 38 117 0.0 0.0 0.00 0.00 0.00 99 1018.9
20260508092621 38 117 0.0 0.0 0.00 0.00 0.00 99 1018.8
20260508092120 38 117 0.0 0.0 0.00 0.00 0.00 99 1018.9
20260508091617 38 117 0.0 0.0 0.00 0.00 0.00 99 1019.1
20260508091114 39 117 0.0 0.0 0.00 0.00 0.00 99 1019.0
20260508090612 38 117 0.0 0.0 0.00 0.00 0.00 99 1019.0
20260508090109 38 117 0.0 0.0 0.00 0.00 0.00 99 1019.1
20260508085605 39 117 0.0 0.0 0.00 0.00 0.00 99 1018.8
20260508085102 38 117 0.0 0.0 0.00 0.00 0.00 99 1019.0
20260508084559 38 117 0.0 0.0 0.00 0.00 0.00 99 1019.0
20260508084056 39 117 0.0 0.0 0.00 0.00 0.00 99 1018.8
20260508083553 39 117 0.0 0.0 0.00 0.00 0.00 99 1019.1
20260508083050 39 117 0.0 0.0 0.00 0.00 0.00 99 1019.1
20260508082546 39 117 0.0 0.0 0.00 0.00 0.00 99 1019.2
20260508082043 39 117 0.0 0.0 0.00 0.00 0.00 99 1018.9
20260508081541 39 117 0.0 0.0 0.00 0.00 0.00 99 1019.1
20260508081036 39 117 0.0 0.0 0.00 0.00 0.00 99 1019.0
20260508080535 39 117 0.0 0.0 0.00 0.00 0.00 99 1018.9
20260508080032 39 117 0.0 0.0 0.00 0.00 0.00 99 1019.0
20260508075528 39 117 0.0 0.0 0.00 0.00 0.00 99 1019.0
20260508075026 39 117 0.0 0.0 0.00 0.00 0.00 99 1019.0
20260508074523 39 117 0.0 0.0 0.00 0.00 0.00 99 1019.0
20260508074020 39 117 0.0 0.0 0.00 0.00 0.00 99 1018.9
20260508073517 39 117 0.0 0.0 0.00 0.00 0.00 99 1019.0
20260508073015 39 117 0.0 0.0 0.00 0.00 0.00 99 1018.9
20260508072510 39 117 0.0 0.0 0.00 0.00 0.00 99 1018.9
20260508072008 39 117 0.0 0.0 0.00 0.00 0.00 99 1018.9
20260508071506 39 117 0.0 0.0 0.00 0.00 0.00 99 1019.1
20260508071003 40 117 0.0 0.0 0.00 0.00 0.00 99 1019.0
20260508070500 39 119 0.0 0.0 0.00 0.00 0.00 99 1019.0
20260508065958 40 119 0.0 0.0 0.00 0.00 0.00 99 1019.2
20260508065456 40 118 0.0 0.0 0.00 0.00 0.00 99 1019.1
20260508064954 39 118 0.0 0.0 0.00 0.00 0.00 99 1019.1
20260508064451 40 118 0.0 0.0 0.00 0.00 0.00 99 1019.2
20260508063949 40 118 0.0 0.0 0.00 0.00 0.00 99 1019.2
20260508063446 40 117 0.0 0.0 0.00 0.00 0.00 99 1019.3
20260508062944 40 119 0.0 0.0 0.00 0.00 0.00 99 1019.4
20260508062441 40 118 0.0 0.0 0.00 0.00 0.00 99 1019.4
20260508061938 40 117 0.0 0.0 0.00 0.00 0.00 99 1019.5
20260508061436 40 118 0.0 0.0 0.00 0.00 0.00 99 1019.5
20260508060931 41 118 0.0 0.0 0.00 0.00 0.00 99 1019.6
20260508060429 41 116 0.0 0.0 0.00 0.00 0.00 99 1019.4
20260508055925 41 121 0.0 0.0 0.00 0.00 0.00 99 1019.7
20260508055422 41 122 0.0 0.0 0.00 0.00 0.00 99 1019.5
20260508054918 41 124 0.0 0.0 0.00 0.00 0.00 99 1019.7
20260508054416 41 117 0.0 0.0 0.00 0.00 0.00 99 1019.5
20260508053913 41 114 0.0 0.0 0.00 0.00 0.00 99 1019.7
20260508053410 41 112 0.0 0.0 0.00 0.00 0.00 99 1019.7
20260508052907 41 118 0.0 0.0 0.00 0.00 0.00 99 1019.6
20260508052405 41 121 0.0 0.0 0.00 0.00 0.00 99 1019.6
20260508051900 41 121 0.0 0.0 0.00 0.00 0.00 99 1019.8
20260508051356 41 121 0.0 0.0 0.00 0.00 0.00 99 1019.7
20260508050853 41 121 0.0 0.0 0.00 0.00 0.00 99 1019.5
20260508050350 42 123 0.0 0.0 0.00 0.00 0.00 99 1019.5
20260508045846 41 118 0.0 0.0 0.00 0.00 0.00 99 1019.6
20260508045344 42 117 0.0 0.0 0.00 0.00 0.00 99 1019.7
20260508044841 42 119 0.0 0.0 0.00 0.00 0.00 99 1019.5
20260508044337 42 120 0.0 0.0 0.00 0.00 0.00 98 1019.5
20260508043833 42 119 0.0 0.0 0.00 0.00 0.00 98 1019.6
20260508043331 42 118 0.0 0.0 0.00 0.00 0.00 98 1019.5
20260508042827 42 119 0.0 0.0 0.00 0.00 0.00 98 1019.5
20260508042325 42 120 0.0 0.0 0.00 0.00 0.00 98 1019.5
20260508041822 42 120 0.0 0.0 0.00 0.00 0.00 98 1019.6
20260508041318 42 118 0.0 0.0 0.00 0.00 0.00 97 1019.6
20260508040814 42 118 0.0 0.0 0.00 0.00 0.00 97 1019.6
20260508040312 42 118 0.0 0.0 0.00 0.00 0.00 97 1019.7
20260508035809 42 118 0.0 0.0 0.00 0.00 0.00 97 1019.3
20260508035307 43 118 0.0 0.0 0.00 0.00 0.00 97 1019.6
20260508034803 43 119 0.0 0.0 0.00 0.00 0.00 97 1019.5
20260508034300 43 118 0.0 0.0 0.00 0.00 0.00 96 1019.4
20260508033757 43 119 0.0 0.0 0.00 0.00 0.00 96 1019.7
20260508033256 43 119 0.0 0.0 0.00 0.00 0.00 96 1019.7
20260508032753 43 119 0.0 0.0 0.00 0.00 0.00 96 1019.6
20260508032250 43 119 0.0 0.0 0.00 0.00 0.00 95 1019.6
20260508031746 43 119 0.0 0.0 0.00 0.00 0.00 95 1019.5
20260508031243 44 119 0.0 0.0 0.00 0.00 0.00 95 1019.8
20260508030739 44 119 0.0 0.0 0.00 0.00 0.00 94 1019.6
20260508030237 44 119 0.0 0.0 0.00 0.00 0.00 94 1019.7
20260508025733 44 119 0.0 0.0 0.00 0.00 0.00 94 1019.7
20260508025230 44 119 0.0 0.0 0.00 0.00 0.00 94 1019.7
20260508024726 44 119 0.0 0.0 0.00 0.00 0.00 93 1019.7
20260508024223 45 119 0.0 0.0 0.00 0.00 0.00 93 1019.9
20260508023720 45 119 0.0 0.0 0.00 0.00 0.00 93 1019.6
20260508023218 45 119 0.0 0.0 0.00 0.00 0.00 92 1019.6
20260508022713 45 119 0.0 0.0 0.00 0.00 0.00 91 1019.4
20260508022210 46 119 0.0 0.0 0.00 0.00 0.00 91 1019.5
20260508021707 46 119 0.0 0.0 0.00 0.00 0.00 90 1019.2
20260508021202 46 119 0.0 0.0 0.00 0.00 0.00 90 1019.2
20260508020700 46 119 0.0 0.0 0.00 0.00 0.00 89 1019.2
20260508020157 46 119 0.0 0.0 0.00 0.00 0.00 88 1019.0
20260508015654 47 119 0.0 0.0 0.00 0.00 0.00 87 1019.0
20260508015151 47 119 0.0 0.0 0.00 0.00 0.00 86 1018.9
20260508014648 47 119 0.0 0.0 0.00 0.00 0.00 84 1018.9
20260508014143 47 119 0.0 0.0 0.00 0.00 0.00 83 1018.9
20260508013640 48 119 0.0 0.0 0.00 0.00 0.00 83 1019.0
20260508013137 48 117 0.0 0.0 0.00 0.00 0.00 81 1018.9
20260508012635 48 139 0.0 0.0 0.00 0.00 0.00 82 1018.8
20260508012132 49 124 0.0 0.0 0.00 0.00 0.00 82 1018.8
20260508011630 49 118 0.0 0.0 0.00 0.00 0.00 81 1018.6
20260508011127 50 114 0.0 0.0 0.00 0.00 0.00 80 1018.6
20260508010624 50 115 0.0 0.0 0.00 0.00 0.00 78 1018.4
20260508010122 51 115 0.0 0.0 0.00 0.00 0.00 75 1018.3
20260508005619 51 115 0.0 0.0 0.00 0.00 0.00 72 1018.3
20260508005114 52 115 0.0 0.0 0.00 0.00 0.00 72 1018.5
20260508004610 53 115 0.0 0.0 0.00 0.00 0.00 68 1018.3
20260508004108 53 114 0.0 0.0 0.00 0.00 0.00 64 1018.3
20260508003604 54 115 0.0 0.0 0.00 0.00 0.00 63 1018.3
20260508003102 55 114 0.0 0.0 0.00 0.00 0.00 56 1018.1
20260508002558 56 114 0.0 0.0 0.00 0.00 0.00 60 1018.3
20260508002055 57 114 0.0 0.0 0.00 0.00 0.00 57 1018.2
20260508001551 59 100 0.0 0.0 0.00 0.00 0.00 58 1018.1
20260508001047 60 117 0.0 0.0 0.00 0.00 0.00 47 1018.1
20260508000543 63 111 0.0 1.0 0.00 0.00 0.00 47 1018.1
20260508000040 63 165 0.0 2.0 0.00 0.00 0.00 39 1018.2
20260507235537 64 147 0.0 1.0 0.00 0.00 0.00 40 1018.2
20260507235035 64 115 0.0 0.0 0.00 0.00 0.00 47 1017.9
20260507234531 65 182 1.0 1.0 0.00 0.00 0.00 37 1018.1
20260507234027 65 114 0.0 0.0 0.00 0.00 0.00 38 1017.9
20260507233524 65 160 0.0 1.0 0.00 0.00 0.00 34 1018.1
20260507233023 64 196 1.0 3.0 0.00 0.00 0.00 38 1018.0
20260507232519 65 136 0.0 1.0 0.00 0.00 0.00 37 1017.9
20260507232016 66 29 0.0 1.0 0.00 0.00 0.00 36 1017.9
20260507231512 66 109 0.0 1.0 0.00 0.00 0.00 33 1018.1
20260507231010 66 90 1.0 2.0 0.00 0.00 0.00 33 1018.2
20260507230507 66 125 0.0 0.0 0.00 0.00 0.00 32 1018.1
20260507230003 65 113 0.0 2.0 0.00 0.00 0.00 37 1018.2
20260507225458 66 279 1.0 3.0 0.00 0.00 0.00 36 1018.1
20260507224954 66 135 1.0 3.0 0.00 0.00 0.00 35 1018.1
20260507224450 67 137 1.0 3.0 0.00 0.00 0.00 37 1018.2
20260507223947 67 13 2.0 5.0 0.00 0.00 0.00 34 1018.1
20260507223443 67 231 3.0 3.0 0.00 0.00 0.00 32 1018.1
20260507222941 66 224 2.0 3.0 0.00 0.00 0.00 35 1018.2
20260507222437 66 302 2.0 5.0 0.00 0.00 0.00 33 1018.3
20260507221933 66 94 1.0 3.0 0.00 0.00 0.00 35 1018.1
20260507221425 67 167 3.0 3.0 0.00 0.00 0.00 35 1018.3
20260507220920 68 167 1.0 3.0 0.00 0.00 0.00 35 1018.0
20260507220413 66 230 1.0 2.0 0.00 0.00 0.00 35 1018.1
20260507215909 67 128 2.0 3.0 0.00 0.00 0.00 33 1018.0
20260507215406 66 259 3.0 3.0 0.00 0.00 0.00 36 1018.1
20260507214903 65 110 0.0 2.0 0.00 0.00 0.00 43 1018.1
20260507214401 66 15 4.0 6.0 0.00 0.00 0.00 34 1017.9
20260507213856 66 126 1.0 2.0 0.00 0.00 0.00 34 1018.0
20260507213353 65 133 0.0 2.0 0.00 0.00 0.00 36 1018.0
20260507212850 67 147 1.0 2.0 0.00 0.00 0.00 34 1018.1
20260507212346 66 128 0.0 1.0 0.00 0.00 0.00 35 1018.3
20260507211842 66 11 3.0 5.0 0.00 0.00 0.00 36 1018.3
20260507211339 65 220 1.0 3.0 0.00 0.00 0.00 38 1018.2
20260507210836 64 275 2.0 2.0 0.00 0.00 0.00 35 1018.3
20260507210333 67 242 4.0 8.0 0.00 0.00 0.00 35 1018.2
20260507205829 66 171 0.0 2.0 0.00 0.00 0.00 38 1018.1
20260507205327 67 154 1.0 3.0 0.00 0.00 0.00 34 1018.3
20260507204822 67 147 3.0 6.0 0.00 0.00 0.00 36 1018.1
20260507204320 68 245 4.0 7.0 0.00 0.00 0.00 34 1018.2
20260507203818 67 248 4.0 6.0 0.00 0.00 0.00 35 1018.3
20260507203315 66 117 1.0 3.0 0.00 0.00 0.00 34 1018.2
20260507202811 66 233 1.0 2.0 0.00 0.00 0.00 34 1018.2
20260507202308 66 46 1.0 3.0 0.00 0.00 0.00 37 1018.4
20260507201803 65 191 1.0 2.0 0.00 0.00 0.00 43 1018.4
20260507201259 66 145 2.0 3.0 0.00 0.00 0.00 36 1018.3
20260507200756 65 186 1.0 5.0 0.00 0.00 0.00 35 1018.2
20260507200252 64 15 4.0 6.0 0.00 0.00 0.00 37 1018.5
20260507195748 62 287 1.0 5.0 0.00 0.00 0.00 42 1018.4
20260507195245 63 106 1.0 2.0 0.00 0.00 0.00 40 1018.7
20260507194743 63 123 1.0 5.0 0.00 0.00 0.00 39 1018.9
20260507194238 65 184 1.0 3.0 0.00 0.00 0.00 39 1018.6
20260507193735 67 158 0.0 2.0 0.00 0.00 0.00 40 1018.7
20260507193232 66 7 2.0 3.0 0.00 0.00 0.00 35 1018.7
20260507192728 67 0 2.0 5.0 0.00 0.00 0.00 39 1018.7
20260507192225 66 153 2.0 2.0 0.00 0.00 0.00 39 1018.6
20260507191721 66 329 1.0 3.0 0.00 0.00 0.00 38 1018.6
20260507191218 64 61 1.0 6.0 0.00 0.00 0.00 42 1018.7
20260507190715 65 318 2.0 6.0 0.00 0.00 0.00 37 1018.7
20260507190214 65 249 2.0 5.0 0.00 0.00 0.00 37 1018.7
20260507185712 66 245 3.0 3.0 0.00 0.00 0.00 37 1018.8
20260507185208 66 306 3.0 3.0 0.00 0.00 0.00 37 1018.8
20260507184706 65 15 1.0 3.0 0.00 0.00 0.00 37 1018.9
20260507184203 65 110 1.0 5.0 0.00 0.00 0.00 39 1018.7
20260507183654 63 209 2.0 5.0 0.00 0.00 0.00 40 1018.9
20260507183151 64 21 3.0 3.0 0.00 0.00 0.00 38 1018.9
20260507182648 64 139 1.0 3.0 0.00 0.00 0.00 37 1019.0
20260507182143 64 250 6.0 8.0 0.00 0.00 0.00 39 1018.9
20260507181640 64 166 1.0 6.0 0.00 0.00 0.00 41 1019.3
20260507181136 64 142 1.0 3.0 0.00 0.00 0.00 36 1019.0
20260507180633 64 121 1.0 5.0 0.00 0.00 0.00 35 1018.9
20260507180130 64 277 1.0 7.0 0.00 0.00 0.00 43 1019.0
20260507175626 63 251 0.0 3.0 0.00 0.00 0.00 44 1019.1
20260507175123 63 87 1.0 1.0 0.00 0.00 0.00 44 1019.1
20260507174620 63 252 2.0 3.0 0.00 0.00 0.00 44 1019.3
20260507174118 63 138 0.0 5.0 0.00 0.00 0.00 38 1019.3
20260507173615 63 88 2.0 3.0 0.00 0.00 0.00 38 1019.3
20260507173112 63 156 0.0 3.0 0.00 0.00 0.00 36 1019.5
20260507172608 63 137 0.0 2.0 0.00 0.00 0.00 44 1019.6
20260507172106 62 347 5.0 9.0 0.00 0.00 0.00 40 1019.7
20260507171600 63 276 5.0 8.0 0.00 0.00 0.00 38 1019.6
20260507171058 62 123 1.0 6.0 0.00 0.00 0.00 42 1019.6
20260507170554 63 98 1.0 3.0 0.00 0.00 0.00 36 1019.9
20260507170051 63 114 3.0 5.0 0.00 0.00 0.00 42 1019.8
20260507165546 62 119 1.0 3.0 0.00 0.00 0.00 41 1019.9
20260507165038 62 132 1.0 2.0 0.00 0.00 0.00 40 1019.9
20260507164534 62 231 4.0 6.0 0.00 0.00 0.00 41 1020.0
20260507164032 61 3 2.0 5.0 0.00 0.00 0.00 37 1019.9
20260507163528 61 277 5.0 8.0 0.00 0.00 0.00 37 1020.3
20260507163026 62 251 3.0 6.0 0.00 0.00 0.00 36 1020.1
20260507162521 62 112 0.0 3.0 0.00 0.00 0.00 42 1020.3
20260507162018 61 209 2.0 6.0 0.00 0.00 0.00 35 1020.6
20260507161514 61 166 1.0 6.0 0.00 0.00 0.00 41 1020.4
20260507161011 61 221 1.0 3.0 0.00 0.00 0.00 38 1020.3
20260507160507 61 170 3.0 6.0 0.00 0.00 0.00 36 1020.3
20260507160004 62 210 1.0 8.0 0.00 0.00 0.00 37 1020.5
20260507155459 62 151 2.0 2.0 0.00 0.00 0.00 37 1020.2
20260507154956 61 152 2.0 5.0 0.00 0.00 0.00 39 1020.3
20260507154453 60 41 4.0 7.0 0.00 0.00 0.00 35 1020.3
20260507153950 61 173 2.0 5.0 0.00 0.00 0.00 36 1020.4
20260507153447 60 138 5.0 7.0 0.00 0.00 0.00 41 1020.4
20260507152943 59 138 0.0 2.0 0.00 0.00 0.00 37 1020.3
20260507152439 60 10 3.0 5.0 0.00 0.00 0.00 40 1020.5
20260507151935 60 313 0.0 2.0 0.00 0.00 0.00 43 1020.3
20260507151432 60 40 1.0 6.0 0.00 0.00 0.00 44 1020.2
20260507150929 59 194 1.0 9.0 0.00 0.00 0.00 42 1020.3
20260507150426 60 153 2.0 3.0 0.00 0.00 0.00 42 1020.2
20260507145922 60 146 0.0 3.0 0.00 0.00 0.00 45 1020.2
20260507145418 59 133 1.0 3.0 0.00 0.00 0.00 42 1020.3
20260507144915 58 134 1.0 9.0 0.00 0.00 0.00 43 1020.4
20260507144412 60 355 3.0 6.0 0.00 0.00 0.00 42 1020.4
20260507143909 59 278 1.0 5.0 0.00 0.00 0.00 43 1020.6
20260507143406 59 188 1.0 3.0 0.00 0.00 0.00 44 1020.5
20260507142903 57 274 6.0 9.0 0.00 0.00 0.00 43 1020.7
20260507142359 58 339 3.0 6.0 0.00 0.00 0.00 46 1020.4
20260507141856 58 155 1.0 2.0 0.00 0.00 0.00 48 1020.4
20260507141352 58 88 1.0 3.0 0.00 0.00 0.00 49 1020.4
20260507140849 57 213 1.0 2.0 0.00 0.00 0.00 51 1020.4
20260507140346 58 309 1.0 3.0 0.00 0.00 0.00 50 1020.3
20260507135844 57 173 0.0 3.0 0.00 0.00 0.00 52 1020.2
20260507135340 57 141 0.0 3.0 0.00 0.00 0.00 49 1020.4
20260507134838 57 114 0.0 3.0 0.00 0.00 0.00 51 1020.4
20260507134333 57 336 1.0 2.0 0.00 0.00 0.00 54 1020.2
20260507133830 57 128 0.0 1.0 0.00 0.00 0.00 61 1020.4
20260507133325 56 121 0.0 1.0 0.00 0.00 0.00 55 1020.4
20260507132824 55 124 1.0 2.0 0.00 0.00 0.00 57 1020.4
20260507132320 55 167 2.0 3.0 0.00 0.00 0.00 55 1020.2
20260507131817 54 124 0.0 1.0 0.00 0.00 0.00 63 1020.2
20260507131314 53 278 1.0 2.0 0.00 0.00 0.00 61 1020.3
20260507130810 53 119 0.0 2.0 0.00 0.00 0.00 61 1020.5
20260507130308 52 88 1.0 3.0 0.00 0.00 0.00 66 1020.2
20260507125807 51 128 0.0 2.0 0.00 0.00 0.00 64 1020.3
20260507125306 51 85 1.0 2.0 0.00 0.00 0.00 68 1020.2
20260507124801 50 133 0.0 1.0 0.00 0.00 0.00 70 1020.4
20260507124257 50 128 0.0 0.0 0.00 0.00 0.00 70 1020.6
20260507123756 47 79 0.0 0.0 0.00 0.00 0.00 78 1020.5
20260507123253 46 62 2.0 2.0 0.00 0.00 0.00 81 1020.3
20260507122748 45 105 0.0 0.0 0.00 0.00 0.00 89 1020.4
20260507122244 44 117 0.0 1.0 0.00 0.00 0.00 93 1020.1
20260507121740 43 23 1.0 3.0 0.00 0.00 0.00 99 1020.3
20260507121236 42 112 0.0 2.0 0.00 0.00 0.00 99 1020.3
20260507120732 41 111 0.0 0.0 0.00 0.00 0.00 99 1020.2